Waarnemingen

Advertentie
Mijn weer
Don Benito, Spanje (8333): temperatuur & dauwpunt: 07.07.2020 16:00:00 - 13.07.2020 16:00:00 (CEST)Don Benito, Spanje (8333): windsnelheid & windstoten: 07.07.2020 16:00:00 - 13.07.2020 16:00:00 (CEST)Don Benito, Spanje (8333): windrichting: 07.07.2020 16:00:00 - 13.07.2020 16:00:00 (CEST)Don Benito, Spanje (8333): luchtdruk: 07.07.2020 16:00:00 - 13.07.2020 16:00:00 (CEST)Don Benito, Spanje (8333): zicht: 07.07.2020 16:00:00 - 13.07.2020 16:00:00 (CEST)Don Benito, Spanje (8333): Zonneschijnduur: 07.07.2020 16:00:00 - 13.07.2020 16:00:00 (CEST)Don Benito, Spanje (8333): neerslag: 07.07.2020 16:00:00 - 13.07.2020 16:00:00 (CEST)
Datum & Tijd tt [°C] td [°C] ff [km/u] ff [kn] fx [km/u] fx [kn] dd ppp [hPa] vv [km] sd [min] rr [mm]
13.07.2020 16:00:00 - - - - - - - - - - -
13.07.2020 15:00:00 36,5 13,3 5 3 13 7 N 1014,1 20 60 0,0
13.07.2020 14:00:00 35,4 14,1 4 2 18 10 N 1014,9 20 60 -
13.07.2020 13:00:00 32,6 15,6 8 4 18 10 NNW 1015,6 20 60 0,0
13.07.2020 12:00:00 31,2 15,2 8 4 16 9 NW 1016,1 20 60 0,0
13.07.2020 11:00:00 31,1 13,9 4 2 16 9 NO 1015,9 20 60 0,0
13.07.2020 10:00:00 28,0 14,2 4 2 11 6 N 1016,0 20 60 0,0
13.07.2020 09:00:00 24,8 14,5 2 1 5 3 N 1016,0 18 11 0,0
13.07.2020 08:00:00 22,1 12,6 2 1 5 3 ZW 1015,8 18 0 -
13.07.2020 07:00:00 22,4 11,8 2 1 7 4 ZZW 1015,3 20 0 0,0
13.07.2020 06:00:00 22,8 11,8 3 2 7 4 WNW 1014,7 20 0 0,0
13.07.2020 05:00:00 24,1 11,1 4 2 8 4 WZW 1014,5 20 0 0,0
13.07.2020 04:00:00 24,7 12,0 2 1 6 3 ZZW 1014,3 20 0 0,0
13.07.2020 03:00:00 25,5 10,5 3 2 9 5 ZW 1014,3 20 0 0,0
13.07.2020 02:00:00 26,3 10,9 2 1 6 3 ZW 1014,3 20 0 -
13.07.2020 01:00:00 27,3 10,5 2 1 6 4 Z 1014,3 20 0 0,0
13.07.2020 00:00:00 28,5 10,6 4 2 10 6 N 1013,9 20 0 0,0
12.07.2020 23:00:00 29,4 10,5 4 2 13 7 N 1013,3 20 0 0,0
12.07.2020 22:00:00 30,2 11,7 6 3 14 8 N 1012,4 20 0 0,0
12.07.2020 21:00:00 32,9 10,9 6 4 18 10 NNW 1011,6 20 25 0,0
12.07.2020 20:00:00 35,9 10,9 6 3 16 9 NNW 1010,9 20 60 -
12.07.2020 19:00:00 37,7 8,5 6 3 17 9 NW 1010,7 20 60 0,0
12.07.2020 18:00:00 37,4 9,9 9 5 21 11 NNW 1011,0 20 60 0,0
12.07.2020 17:00:00 37,3 8,1 10 6 22 12 NW 1011,2 20 60 0,0
12.07.2020 16:00:00 37,6 7,6 8 4 22 12 WNW 1011,5 19 60 0,0
12.07.2020 15:00:00 36,0 10,9 10 5 17 9 NW 1012,4 20 60 0,0
12.07.2020 14:00:00 34,6 11,1 6 3 19 10 WNW 1013,1 20 60 -
12.07.2020 13:00:00 33,2 11,1 6 3 18 10 WZW 1013,6 20 60 0,0
12.07.2020 12:00:00 30,5 11,0 7 4 14 7 WNW 1013,8 20 60 0,0
12.07.2020 11:00:00 29,0 11,1 6 3 13 7 W 1013,6 20 60 0,0
12.07.2020 10:00:00 26,8 12,4 5 3 11 6 W 1013,7 20 60 0,0
12.07.2020 09:00:00 24,8 13,1 2 1 7 4 NO 1013,4 20 11 0,0
12.07.2020 08:00:00 23,1 10,5 4 2 9 5 Z 1013,1 20 0 -
12.07.2020 07:00:00 22,8 11,2 7 4 14 8 ZZW 1012,6 20 0 0,0
12.07.2020 06:00:00 23,4 11,1 10 5 15 8 ZZW 1011,9 20 0 0,0
12.07.2020 05:00:00 23,1 11,8 7 4 11 6 ZZW 1011,9 20 0 0,0
12.07.2020 04:00:00 24,5 11,8 8 4 11 6 ZZW 1011,4 20 0 0,0
12.07.2020 03:00:00 25,8 11,9 6 3 22 12 WZW 1011,4 20 0 0,0
12.07.2020 02:00:00 27,1 11,1 13 7 32 17 WZW 1011,5 20 0 -
12.07.2020 01:00:00 29,4 10,0 16 9 26 14 ZW 1010,6 20 0 0,0
12.07.2020 00:00:00 31,6 10,3 10 5 20 11 WZW 1009,1 20 0 0,0
11.07.2020 23:00:00 33,5 5,9 8 4 15 8 Z 1008,6 20 0 0,0
11.07.2020 22:00:00 35,4 2,9 5 3 20 11 Z 1007,8 20 0 0,0
11.07.2020 21:00:00 37,2 3,0 8 5 22 12 Z 1007,5 20 14 0,0
11.07.2020 20:00:00 39,4 4,8 14 7 31 17 Z 1007,0 20 59 -
11.07.2020 19:00:00 39,8 6,2 6 4 21 11 WZW 1007,2 20 60 0,0
11.07.2020 18:00:00 39,8 10,2 8 5 29 15 NW 1007,4 20 60 0,0
11.07.2020 17:00:00 39,3 11,4 10 5 26 14 NNW 1007,9 20 60 0,0
11.07.2020 16:00:00 39,2 11,3 9 5 25 14 N 1008,6 20 56 0,0
11.07.2020 15:00:00 37,5 11,4 10 5 19 10 N 1009,6 20 42 0,0
11.07.2020 14:00:00 37,6 12,2 9 5 19 10 N 1010,2 20 60 -
11.07.2020 13:00:00 37,7 10,2 6 3 18 10 ONO 1010,6 20 60 0,0
11.07.2020 12:00:00 35,9 8,7 7 4 13 7 OZO 1011,3 20 60 0,0
11.07.2020 11:00:00 32,9 10,3 4 2 9 5 ONO 1011,6 20 60 0,0
11.07.2020 10:00:00 27,3 12,1 5 3 10 5 N 1012,2 19 60 0,0
11.07.2020 09:00:00 25,2 9,4 3 2 7 4 OZO 1012,1 20 12 0,0
11.07.2020 08:00:00 22,9 9,7 1 1 5 3 ZW 1011,9 19 0 -
11.07.2020 07:00:00 22,6 9,0 3 1 6 3 ZZO 1011,6 20 0 0,0
11.07.2020 06:00:00 23,4 9,4 3 2 5 3 ZZO 1011,2 20 0 0,0
11.07.2020 05:00:00 24,1 10,0 4 2 6 4 Z 1010,9 20 0 0,0
11.07.2020 04:00:00 24,7 10,2 2 1 7 4 N 1010,8 20 0 0,0
11.07.2020 03:00:00 25,1 9,8 4 2 11 6 ZZO 1011,2 20 0 0,0
11.07.2020 02:00:00 26,1 10,3 3 1 8 4 ZZW 1011,2 20 0 -
11.07.2020 01:00:00 27,8 9,6 5 3 8 5 ZW 1010,8 20 0 0,0
11.07.2020 00:00:00 29,5 10,0 2 1 5 3 WZW 1010,4 20 0 0,0
10.07.2020 23:00:00 31,1 8,1 2 1 4 2 W 1009,9 20 0 0,0
10.07.2020 22:00:00 32,5 8,0 2 1 6 3 ZW 1009,2 10 0 0,0
10.07.2020 21:00:00 35,6 7,6 2 1 8 4 WZW 1008,8 20 27 0,0
10.07.2020 20:00:00 38,0 7,8 3 2 14 8 WNW 1008,4 20 60 -
10.07.2020 19:00:00 38,6 6,4 3 1 11 6 NW 1008,4 20 60 0,0
10.07.2020 18:00:00 38,9 6,5 3 2 12 7 NW 1008,6 20 60 0,0
10.07.2020 17:00:00 38,4 6,2 3 2 13 7 NNO 1009,3 20 60 0,0
10.07.2020 16:00:00 37,6 8,4 4 2 13 7 N 1010,0 20 60 0,0
10.07.2020 15:00:00 35,8 9,3 6 4 13 7 NW 1010,9 20 60 0,0
10.07.2020 14:00:00 33,8 10,4 6 3 15 8 N 1011,9 20 60 -
10.07.2020 13:00:00 32,8 11,3 5 3 14 8 N 1012,3 20 60 0,0
10.07.2020 12:00:00 30,4 13,3 4 2 14 7 NNW 1012,6 16 60 0,0
10.07.2020 11:00:00 28,2 15,2 5 3 11 6 N 1013,2 20 60 0,0
10.07.2020 10:00:00 26,3 13,1 3 2 10 6 ZZW 1013,5 13 60 0,0
10.07.2020 09:00:00 22,7 13,2 5 3 9 5 ZW 1013,8 20 12 0,0
10.07.2020 08:00:00 20,7 13,4 4 2 11 6 ZZW 1013,9 19 0 -
10.07.2020 07:00:00 20,0 12,5 4 2 9 5 Z 1013,6 14 0 0,0
10.07.2020 06:00:00 21,2 12,6 4 2 9 5 WZW 1013,3 20 0 0,0
10.07.2020 05:00:00 21,7 9,3 3 2 7 4 WZW 1013,2 20 0 0,0
10.07.2020 04:00:00 22,7 6,1 1 1 9 5 Z 1013,1 20 0 0,0
10.07.2020 03:00:00 23,8 5,1 5 3 9 5 ZO 1013,3 20 0 0,0
10.07.2020 02:00:00 24,2 6,8 3 1 8 5 ZZO 1013,5 20 0 -
10.07.2020 01:00:00 24,6 7,7 1 1 6 3 ZZW 1013,4 20 0 0,0
10.07.2020 00:00:00 26,8 6,7 3 1 8 4 ZW 1012,9 20 0 0,0
09.07.2020 23:00:00 28,6 5,5 4 2 10 6 ZW 1012,3 17 0 0,0
09.07.2020 22:00:00 30,4 5,6 5 3 9 5 WZW 1011,5 20 0 0,0
09.07.2020 21:00:00 33,3 5,8 5 3 11 6 WZW 1011,1 20 28 0,0
09.07.2020 20:00:00 35,1 6,4 6 3 15 8 W 1010,7 20 60 -
09.07.2020 19:00:00 35,2 6,4 5 3 14 8 NW 1010,8 20 60 0,0
09.07.2020 18:00:00 34,8 4,3 7 4 16 8 NW 1011,5 20 60 0,0
09.07.2020 17:00:00 35,1 5,5 5 3 14 8 N 1012,3 20 60 0,0
09.07.2020 16:00:00 33,8 8,4 7 4 16 9 NNW 1013,1 20 60 0,0
09.07.2020 15:00:00 32,6 10,0 5 3 17 9 N 1013,9 20 60 0,0
09.07.2020 14:00:00 31,4 9,0 7 4 15 8 NW 1014,4 20 60 -
09.07.2020 13:00:00 29,6 8,7 7 4 14 8 NW 1015,0 20 60 0,0
09.07.2020 12:00:00 27,9 12,6 6 3 14 8 NNO 1015,2 20 60 0,0
09.07.2020 11:00:00 25,4 13,9 4 2 10 6 NNW 1015,7 9 60 0,0
09.07.2020 10:00:00 23,4 14,1 4 2 9 5 ZW 1016,2 19 60 0,0
09.07.2020 09:00:00 20,8 14,2 1 1 8 5 WZW 1015,8 15 12 0,0
09.07.2020 08:00:00 19,0 14,0 4 2 6 3 ZW 1015,7 13 0 -
09.07.2020 07:00:00 19,3 13,9 4 2 11 6 WZW 1015,1 13 0 0,0
09.07.2020 06:00:00 19,8 13,3 4 2 12 6 W 1014,5 20 0 0,0
09.07.2020 05:00:00 20,7 12,1 8 4 16 9 WZW 1013,6 20 0 0,0
09.07.2020 04:00:00 21,6 12,2 10 5 16 8 ZW 1013,3 20 0 0,0
09.07.2020 03:00:00 22,6 11,7 5 3 14 7 ZW 1013,6 20 0 0,0
09.07.2020 02:00:00 23,7 11,1 8 4 14 8 ZW 1013,5 20 0 -
09.07.2020 01:00:00 24,9 11,1 8 5 17 9 WZW 1013,1 20 0 0,0
09.07.2020 00:00:00 26,1 7,7 9 5 15 8 WZW 1012,6 20 0 0,0
08.07.2020 23:00:00 27,1 6,5 4 2 10 6 ZW 1011,6 20 0 0,0
08.07.2020 22:00:00 28,8 5,0 4 2 18 10 WZW 1010,2 20 0 0,0
08.07.2020 21:00:00 31,9 1,1 9 5 24 13 W 1008,9 20 28 0,0
08.07.2020 20:00:00 34,4 3,0 10 5 29 15 W 1008,2 20 60 -
08.07.2020 19:00:00 36,1 2,3 11 6 31 17 W 1008,3 20 60 0,0
08.07.2020 18:00:00 36,8 3,9 11 6 28 15 W 1008,3 20 60 0,0
08.07.2020 17:00:00 36,1 8,8 12 6 29 15 W 1008,8 20 60 0,0
08.07.2020 16:00:00 36,6 7,6 10 5 24 13 W 1009,0 20 60 0,0
08.07.2020 15:00:00 35,5 11,2 10 5 23 12 WNW 1009,4 20 60 0,0
08.07.2020 14:00:00 33,9 11,1 9 5 20 11 W 1010,3 20 57 -
08.07.2020 13:00:00 31,8 12,1 10 5 19 11 WNW 1010,8 20 56 0,0
08.07.2020 12:00:00 30,6 12,5 6 3 13 7 W 1011,0 20 60 0,0
08.07.2020 11:00:00 28,4 11,9 5 3 15 8 WNW 1011,5 20 60 0,0
08.07.2020 10:00:00 26,9 11,8 9 5 16 9 WZW 1011,5 20 60 0,0
08.07.2020 09:00:00 24,8 12,1 8 4 18 10 WZW 1011,4 20 14 0,0
08.07.2020 08:00:00 24,2 11,9 6 3 16 8 ZW 1011,2 20 0 -
08.07.2020 07:00:00 24,4 12,3 6 3 16 9 ZW 1010,9 20 0 0,0
08.07.2020 06:00:00 25,0 13,0 9 5 21 11 WZW 1010,6 20 0 0,0
08.07.2020 05:00:00 25,7 12,2 5 3 25 13 WZW 1010,6 20 0 0,0
08.07.2020 04:00:00 27,0 9,3 5 3 14 8 ZW 1010,8 20 0 0,0
08.07.2020 03:00:00 28,4 5,9 6 3 12 7 WZW 1011,0 20 0 0,0
08.07.2020 02:00:00 29,1 4,5 8 5 15 8 ZW 1011,2 20 0 -
08.07.2020 01:00:00 30,6 2,7 7 4 10 5 ZZO 1011,0 20 0 0,0
08.07.2020 00:00:00 30,9 4,6 6 3 10 5 Z 1011,3 20 0 0,0
07.07.2020 23:00:00 32,1 8,4 4 2 7 4 ZZW 1010,7 20 0 0,0
07.07.2020 22:00:00 33,1 8,5 1 1 7 4 WZW 1010,2 8 0 0,0
07.07.2020 21:00:00 35,9 9,4 4 2 11 6 W 1009,9 20 26 0,0
07.07.2020 20:00:00 38,5 6,2 5 3 18 10 W 1009,7 20 60 -
07.07.2020 19:00:00 40,3 5,5 8 4 22 12 WNW 1009,7 20 60 0,0
07.07.2020 18:00:00 40,8 3,2 9 5 21 11 WNW 1010,3 20 60 0,0
07.07.2020 17:00:00 40,2 1,3 9 5 25 13 W 1011,0 20 60 0,0
07.07.2020 16:00:00 40,0 1,1 11 6 25 14 W 1011,6 20 60 0,0

tt = temperatuur
td = dauwpunt
ff = windsnelheid
fx = windstoten
dd = windrichting
ppp = luchtdruk
vv = zicht
sd = Zonneschijnduur
rr = neerslag

Weerstations in de omgeving